Location: Shepherdstown, WV
(39.4326°N, 77.8042°W)
Time: 08:13:37
(UTC-04:00)

Transit 2A Rocket - All Passes

Search period start: 04 August 2021 00:00
Search period end: 14 August 2021 00:00
Orbit: 589 x 913 km, 66.7° (Epoch: 03 August)

Date Brightness Start Highest point End Pass type
(mag) Time Alt. Az. Time Alt. Az. Time Alt. Az.
04 Aug - 14:23:00 10° SW 14:27:23 75° WNW 14:32:08 10° NNE daylight
04 Aug - 16:09:47 10° NW 16:10:56 11° NW 16:12:07 10° NNW daylight
04 Aug - 21:25:39 10° NNE 21:28:14 13° NE 21:30:54 10° ENE visible
04 Aug - 23:06:08 10° NNW 23:11:46 68° ENE 23:17:45 10° SE visible
05 Aug - 00:50:06 10° WNW 00:53:54 18° WSW 00:57:50 10° SSW visible
05 Aug - 13:40:32 10° SSW 13:44:49 57° ESE 13:49:26 10° NE daylight
05 Aug - 15:24:46 10° W 15:27:50 17° NW 15:31:01 10° N daylight
05 Aug - 22:23:42 10° NNW 22:29:01 42° NE 22:34:40 10° SE visible
06 Aug - 00:06:32 10° NW 00:11:31 31° WSW 00:16:43 10° S visible
06 Aug - 12:58:35 10° S 13:02:22 29° ESE 13:06:23 10° NE daylight
06 Aug - 14:40:58 10° WSW 14:44:51 28° NW 14:49:01 10° N daylight
06 Aug - 21:41:27 10° N 21:46:10 27° NE 21:51:07 10° ESE visible
06 Aug - 23:23:29 10° NW 23:29:01 53° WSW 23:34:52 10° S visible
07 Aug - 12:17:30 10° SE 12:20:03 15° ESE 12:22:42 10° ENE daylight
07 Aug - 13:57:43 10° SW 14:02:02 50° WNW 14:06:42 10° NNE daylight
07 Aug - 20:59:30 10° N 21:03:10 18° NE 21:07:00 10° E visible
07 Aug - 22:40:43 10° NNW 22:46:26 88° WSW 22:52:28 10° SSE visible
08 Aug - 00:26:01 10° W 00:28:20 12° WSW 00:30:42 10° SW visible
08 Aug - 13:14:57 10° SSW 13:19:21 87° ESE 13:24:09 10° NNE daylight
08 Aug - 15:00:33 10° WNW 15:02:43 13° NW 15:04:57 10° NNW daylight
08 Aug - 20:18:16 10° NNE 20:20:03 11° NE 20:21:50 10° ENE daylight
08 Aug - 21:58:10 10° NNW 22:03:45 57° ENE 22:09:40 10° SE visible
08 Aug - 23:41:39 10° WNW 23:46:01 22° WSW 23:50:31 10° SSW visible
09 Aug - 12:32:39 10° S 12:36:50 44° ESE 12:41:20 10° NE daylight
09 Aug - 14:16:12 10° W 14:19:39 21° NW 14:23:19 10° N daylight
09 Aug - 21:15:47 10° NNW 21:20:58 36° NE 21:26:26 10° ESE visible
09 Aug - 22:58:19 10° NW 23:03:35 38° WSW 23:09:05 10° S visible
10 Aug - 11:50:57 10° SSE 11:54:26 23° ESE 11:58:08 10° NE daylight
10 Aug - 13:32:38 10° WSW 13:36:44 34° NW 13:41:09 10° NNE daylight
10 Aug - 20:33:37 10° N 20:38:04 23° NE 20:42:42 10° E visible
10 Aug - 22:15:23 10° NW 22:21:04 64° WSW 22:27:02 10° SSE visible
11 Aug - 11:10:28 10° SE 11:12:10 12° ESE 11:13:53 10° E daylight
11 Aug - 12:49:33 10° SW 12:53:58 63° WNW 12:58:45 10° NNE daylight
11 Aug - 19:51:48 10° N 19:55:01 15° NE 19:58:20 10° ENE daylight
11 Aug - 21:32:42 10° NNW 21:38:26 79° ENE 21:44:30 10° SSE visible
11 Aug - 23:17:08 10° WNW 23:20:28 16° WSW 23:23:52 10° SW visible
12 Aug - 12:06:57 10° SSW 12:11:20 69° ESE 12:16:07 10° NNE daylight
12 Aug - 13:51:44 10° W 13:54:31 16° NW 13:57:27 10° N daylight
12 Aug - 20:50:12 10° NNW 20:55:43 48° ENE 21:01:32 10° SE visible
12 Aug - 22:33:18 10° NW 22:38:06 27° WSW 22:43:04 10° SSW visible
13 Aug - 11:24:50 10° S 11:28:52 35° ESE 11:33:11 10° NE daylight
13 Aug - 13:07:44 10° WSW 13:11:30 25° NW 13:15:32 10° N daylight
13 Aug - 20:07:53 10° N 20:12:53 31° NE 20:18:08 10° ESE daylight
13 Aug - 21:50:09 10° NW 21:55:39 46° WSW 22:01:23 10° S visible
